Location: Bratislava
(0.0000°N, 17.1167°E)
Time: 02:57:53
(UTC+01:00)

Cosmos 1689 Rocket - Pass Details

Date: 24 January 2021
Orbit: 352 x 366 km, 97.5° (Epoch: 06 March)

Event Time Altitude Azimuth Distance (km) Brightness Sun altitude
Rises 18:20:07 0° 357° (N) 2,152 5.7 -3.9°
Reaches altitude 10° 18:22:09 10° 346° (NNW) 1,312 4.7 -4.3°
Maximum altitude 18:24:39 30° 281° (W) 654 4.0 -4.9°
Drops below altitude 10° 18:27:11 10° 216° (SW) 1,320 5.7 -5.5°
Sets 18:29:14 0° 205° (SSW) 2,168 6.6 -6.0°
